When you browse on this site, cookies collect data to enhance your experience and personalize the content and advertising you see.
Visit our Privacy Policy to learn more. By continuing to use the site, you agree to this use of cookies and data.

Stündliche Wetter Tecozautla

Heute, 14 Juli, Dienstag

Zeit Temperatur Niederschläge Wind Luftdruck Luftfeuchtigkeit
00:00 +18°C° 0 mm 1 m/S 622 mmHg 84%
01:00 +18°C° 0 mm 1 m/S 622 mmHg 85%
02:00 +15°C° 0 mm 0 m/S 621 mmHg 85%
03:00 +15°C° 0 mm 0 m/S 621 mmHg 85%
04:00 +15°C° 0 mm 0 m/S 621 mmHg 84%
05:00 +15°C° 0 mm 0 m/S 621 mmHg 83%
06:00 +17°C° 0 mm 0 m/S 622 mmHg 73%
07:00 +19°C° 0 mm 0 m/S 623 mmHg 63%
08:00 +21°C° 0 mm 0 m/S 624 mmHg 53%
09:00 +22°C° 0 mm 0 m/S 624 mmHg 47%
10:00 +26°C° 0 mm 1 m/S 624 mmHg 41%
11:00 +28°C° 0 mm 1 m/S 625 mmHg 35%
12:00 +28°C° 0 mm 2 m/S 624 mmHg 34%
13:00 +29°C° 0 mm 2 m/S 624 mmHg 32%
14:00 +30°C° 0 mm 3 m/S 624 mmHg 31%
15:00 +29°C° 0.1 mm 4 m/S 624 mmHg 38%
16:00 +28°C° 0.1 mm 4 m/S 623 mmHg 46%
17:00 +27°C° 0.1 mm 5 m/S 623 mmHg 53%
18:00 +25°C° 0.4 mm 4 m/S 623 mmHg 63%
19:00 +22°C° 0.4 mm 3 m/S 623 mmHg 73%
20:00 +20°C° 0.4 mm 2 m/S 623 mmHg 83%
21:00 +20°C° 0 mm 2 m/S 623 mmHg 86%
22:00 +19°C° 0 mm 2 m/S 623 mmHg 89%
23:00 +20°C° 0 mm 1 m/S 623 mmHg 91%

Morgen, 15 Juli, Mittwoch

Zeit Temperatur Niederschläge Wind Luftdruck Luftfeuchtigkeit
00:00 +20°C° 0.1 mm 1 m/S 622 mmHg 92%
01:00 +19°C° 0.1 mm 1 m/S 622 mmHg 93%
02:00 +19°C° 0.1 mm 1 m/S 622 mmHg 94%
03:00 +19°C° 0 mm 1 m/S 622 mmHg 94%
04:00 +18°C° 0 mm 1 m/S 621 mmHg 94%
05:00 +18°C° 0 mm 1 m/S 621 mmHg 94%
06:00 +20°C° 0 mm 1 m/S 622 mmHg 86%
07:00 +19°C° 0 mm 0 m/S 623 mmHg 79%
08:00 +21°C° 0 mm 0 m/S 624 mmHg 72%
09:00 +24°C° 0 mm 1 m/S 624 mmHg 65%
10:00 +26°C° 0 mm 1 m/S 624 mmHg 58%
11:00 +27°C° 0 mm 2 m/S 625 mmHg 51%
12:00 +28°C° 0.1 mm 3 m/S 624 mmHg 47%
13:00 +29°C° 0.1 mm 4 m/S 624 mmHg 43%
14:00 +30°C° 0.1 mm 4 m/S 624 mmHg 39%
15:00 +29°C° 0.5 mm 5 m/S 623 mmHg 46%
16:00 +27°C° 0.5 mm 5 m/S 623 mmHg 53%
17:00 +26°C° 0.5 mm 5 m/S 622 mmHg 60%
18:00 +23°C° 0.6 mm 4 m/S 622 mmHg 68%
19:00 +22°C° 0.6 mm 3 m/S 623 mmHg 75%
20:00 +21°C° 0.6 mm 2 m/S 623 mmHg 83%
21:00 +20°C° 0.2 mm 2 m/S 623 mmHg 86%
22:00 +19°C° 0.2 mm 2 m/S 623 mmHg 90%
23:00 +19°C° 0.2 mm 2 m/S 623 mmHg 93%

übermorgen, 16 Juli, Donnerstag

Zeit Temperatur Niederschläge Wind Luftdruck Luftfeuchtigkeit
00:00 +19°C° 0.1 mm 2 m/S 623 mmHg 92%
01:00 +19°C° 0.1 mm 2 m/S 623 mmHg 91%
02:00 +20°C° 0.1 mm 1 m/S 622 mmHg 90%
03:00 +20°C° 0 mm 1 m/S 623 mmHg 89%
04:00 +20°C° 0 mm 1 m/S 623 mmHg 87%
05:00 +20°C° 0 mm 1 m/S 623 mmHg 86%
06:00 +21°C° 0 mm 1 m/S 623 mmHg 81%
07:00 +22°C° 0 mm 1 m/S 624 mmHg 76%
08:00 +23°C° 0 mm 1 m/S 624 mmHg 71%
09:00 +24°C° 0 mm 2 m/S 625 mmHg 65%
10:00 +26°C° 0 mm 2 m/S 625 mmHg 59%
11:00 +27°C° 0 mm 3 m/S 625 mmHg 53%
12:00 +28°C° 0 mm 4 m/S 625 mmHg 51%
13:00 +28°C° 0 mm 5 m/S 625 mmHg 48%
14:00 +29°C° 0 mm 6 m/S 624 mmHg 45%
15:00 +28°C° 0 mm 6 m/S 624 mmHg 50%
16:00 +26°C° 0 mm 6 m/S 623 mmHg 54%
17:00 +24°C° 0 mm 6 m/S 623 mmHg 59%
18:00 +23°C° 0.1 mm 5 m/S 623 mmHg 68%
19:00 +21°C° 0.1 mm 4 m/S 623 mmHg 77%
20:00 +20°C° 0.1 mm 3 m/S 623 mmHg 87%
21:00 +19°C° 0.2 mm 2 m/S 623 mmHg 89%
22:00 +19°C° 0.2 mm 2 m/S 623 mmHg 92%
23:00 +18°C° 0.2 mm 2 m/S 623 mmHg 95%

17 Juli, Freitag

Zeit Temperatur Niederschläge Wind Luftdruck Luftfeuchtigkeit
00:00 +19°C° 0.1 mm 1 m/S 623 mmHg 94%
01:00 +19°C° 0.1 mm 1 m/S 623 mmHg 92%
02:00 +19°C° 0.1 mm 1 m/S 623 mmHg 91%
03:00 +19°C° 0 mm 1 m/S 623 mmHg 88%
04:00 +19°C° 0 mm 1 m/S 623 mmHg 85%
05:00 +19°C° 0 mm 1 m/S 623 mmHg 82%
06:00 +20°C° 0 mm 1 m/S 624 mmHg 78%
07:00 +21°C° 0 mm 1 m/S 624 mmHg 74%
08:00 +21°C° 0 mm 1 m/S 624 mmHg 70%
09:00 +23°C° 0 mm 1 m/S 624 mmHg 65%
10:00 +24°C° 0 mm 2 m/S 625 mmHg 59%
11:00 +25°C° 0 mm 2 m/S 625 mmHg 53%
12:00 +26°C° 0.1 mm 3 m/S 625 mmHg 49%
13:00 +27°C° 0.1 mm 4 m/S 624 mmHg 44%
14:00 +28°C° 0.1 mm 5 m/S 624 mmHg 39%
15:00 +27°C° 0.1 mm 5 m/S 624 mmHg 46%
16:00 +26°C° 0.1 mm 6 m/S 623 mmHg 52%
17:00 +24°C° 0.1 mm 6 m/S 623 mmHg 58%
18:00 +22°C° 0.3 mm 5 m/S 623 mmHg 66%
19:00 +21°C° 0.3 mm 4 m/S 623 mmHg 75%
20:00 +19°C° 0.3 mm 2 m/S 623 mmHg 84%
21:00 +19°C° 0.3 mm 2 m/S 623 mmHg 84%
22:00 +19°C° 0.3 mm 1 m/S 623 mmHg 84%
23:00 +19°C° 0.3 mm 1 m/S 623 mmHg 84%

18 Juli, Samstag

Zeit Temperatur Niederschläge Wind Luftdruck Luftfeuchtigkeit
00:00 +19°C° 0.6 mm 1 m/S 623 mmHg 83%
01:00 +19°C° 0.6 mm 1 m/S 623 mmHg 83%
02:00 +19°C° 0.6 mm 1 m/S 622 mmHg 83%
03:00 +19°C° 0.1 mm 1 m/S 622 mmHg 82%
04:00 +19°C° 0.1 mm 1 m/S 622 mmHg 82%
05:00 +17°C° 0.1 mm 0 m/S 622 mmHg 82%
06:00 +20°C° 0.1 mm 1 m/S 623 mmHg 77%
07:00 +21°C° 0.1 mm 1 m/S 623 mmHg 71%
08:00 +22°C° 0.1 mm 1 m/S 624 mmHg 66%
09:00 +23°C° 0.2 mm 2 m/S 624 mmHg 61%
10:00 +24°C° 0.2 mm 2 m/S 624 mmHg 56%
11:00 +25°C° 0.2 mm 3 m/S 624 mmHg 51%
12:00 +26°C° 0.3 mm 3 m/S 624 mmHg 49%
13:00 +26°C° 0.3 mm 4 m/S 624 mmHg 47%
14:00 +27°C° 0.3 mm 5 m/S 623 mmHg 44%
15:00 +26°C° 0.2 mm 5 m/S 623 mmHg 49%
16:00 +25°C° 0.2 mm 5 m/S 623 mmHg 54%
17:00 +23°C° 0.2 mm 6 m/S 622 mmHg 59%
18:00 +22°C° 0.1 mm 4 m/S 623 mmHg 67%
19:00 +20°C° 0.1 mm 3 m/S 623 mmHg 74%
20:00 +19°C° 0.1 mm 2 m/S 623 mmHg 82%
21:00 +19°C° 0 mm 1 m/S 623 mmHg 86%
22:00 +18°C° 0 mm 1 m/S 623 mmHg 89%
23:00 +18°C° 0 mm 1 m/S 623 mmHg 93%

19 Juli, Sonntag

Zeit Temperatur Niederschläge Wind Luftdruck Luftfeuchtigkeit
00:00 +15°C° 0 mm 0 m/S 622 mmHg 93%
01:00 +15°C° 0 mm 0 m/S 622 mmHg 94%
02:00 +15°C° 0 mm 0 m/S 621 mmHg 94%
03:00 +15°C° 0 mm 0 m/S 621 mmHg 95%
04:00 +14°C° 0 mm 0 m/S 621 mmHg 95%
05:00 +14°C° 0 mm 0 m/S 621 mmHg 95%
06:00 +18°C° 0 mm 1 m/S 622 mmHg 85%
07:00 +19°C° 0 mm 1 m/S 623 mmHg 76%
08:00 +21°C° 0 mm 1 m/S 624 mmHg 67%
09:00 +23°C° 0 mm 1 m/S 624 mmHg 59%
10:00 +25°C° 0 mm 2 m/S 624 mmHg 52%
11:00 +26°C° 0 mm 2 m/S 624 mmHg 45%
12:00 +27°C° 0.1 mm 3 m/S 624 mmHg 42%
13:00 +28°C° 0.1 mm 4 m/S 624 mmHg 40%
14:00 +29°C° 0.1 mm 5 m/S 624 mmHg 38%
15:00 +28°C° 0 mm 5 m/S 623 mmHg 44%
16:00 +26°C° 0 mm 6 m/S 623 mmHg 51%
17:00 +24°C° 0 mm 6 m/S 622 mmHg 57%
18:00 +23°C° 0.1 mm 5 m/S 622 mmHg 66%
19:00 +21°C° 0.1 mm 4 m/S 622 mmHg 75%
20:00 +19°C° 0.1 mm 3 m/S 622 mmHg 84%
21:00 +19°C° 0 mm 2 m/S 622 mmHg 87%
22:00 +18°C° 0 mm 2 m/S 622 mmHg 90%
23:00 +18°C° 0 mm 1 m/S 622 mmHg 94%
Mehr zeigen